Location: �clusier
(49.9361°N, 2.7869°E)
Time: 20:24:58
(UTC+00:00)

Centaur D AC-29 - Pass Details

Date: 27 October 2021
Orbit: 563 x 36274 km, 26.9° (Epoch: 02 December)

Event Time Altitude Azimuth Distance (km) Brightness Sun altitude
Rises 04:39:08 0° 224° (SW) 16,056 7.8 -18.4°
Reaches altitude 10° 04:54:06 10° 221° (SW) 18,384 8.1 -16.0°
Maximum altitude 07:39:36 35° 235° (SW) 36,146 9.8 9.2°
Drops below altitude 10° 14:18:30 10° 199° (SSW) 6,287 7.6 17.3°
Sets 14:22:37 0° 184° (S) 6,014 6.9 16.9°
